Weather History for Covington, KY

Change the Weather History Date:

Monday, January 28, 2013

  Actual Average Record
Temperature  
Mean Temperature 46 °F 31 °F  
Max Temperature 54 °F 39 °F 68 °F (1914)
Min Temperature 38 °F 23 °F -18 °F (1963)
Degree Days  
Heating Degree Days 19 34  
Month to date heating degree days 901 952  
Since 1 July heating degree days 2767 2871  
Cooling Degree Days 0 0  
Month to date cooling degree days 0 0  
Year to date cooling degree days 0 0  
Moisture  
Dew Point 46 °F    
Average Humidity 86    
Maximum Humidity 100    
Minimum Humidity 71    
Precipitation  
Precipitation 0.32 in 0.09 in 2.35 in (1876)
Month to date precipitation 2.54 2.70  
Year to date precipitation 2.54 2.70  
Snow  
Snow 0.00 in 0.20 in 5.80 in (1995)
Month to date snowfall 1.1 5.7  
Since 1 July snowfall 8.7 11.3  
Snow Depth 0.00 in    
Sea Level Pressure  
Sea Level Pressure 30.09 in    
Wind  
Wind Speed 12 mph (SSW)    
Max Wind Speed 20 mph    
Max Gust Speed 28 mph    
Visibility 5 miles    
Events Rain    
T = Trace of Precipitation, MM = Missing Value Source: NWS Daily Summary

Daily Weather History Graph

Daily Weather History Graph

Search for Another Location

Airport:

Trip Planner

Search our weather history database for the weather conditions in past years. The results will help you decide how hot, cold, wet, or windy it might be!

Date:

Astronomy

Jan. 28, 2013 Rise Set
Actual Time 7:48 AM EST 5:55 PM EST
Civil Twilight 7:19 AM EST 6:23 PM EST
Nautical Twilight 6:47 AM EST 6:56 PM EST
Astronomical Twilight 6:16 AM EST 7:27 PM EST
Moon 7:48 PM EST (1/28) 8:14 AM EST (1/28)
Length of Visible Light 11h 03m
Length of Day
10h 07m
Full, 98% of the Moon is Illuminated
Jan 28
Full
Feb 3
Last Quarter
Feb 10
New
Feb 17
First Quarter
Feb 25
Full

Hourly Weather History & Observations

Time (EST) Temp. Windchill Dew Point Humidity Pressure Visibility Wind Dir Wind Speed Gust Speed Precip Events Conditions
12:52 AM 39.0 °F 32.8 °F 37.9 °F 96% 30.15 in 4.0 mi SSE 9.2 mph - 0.03 in Rain Light Rain
1:36 AM 41.0 °F 34.7 °F 39.2 °F 93% 30.12 in 5.0 mi South 10.4 mph - 0.00 in   Overcast
1:52 AM 42.1 °F 36.6 °F 41.0 °F 96% 30.14 in 6.0 mi South 9.2 mph - 0.00 in Rain Light Rain
2:52 AM 43.0 °F 38.2 °F 42.1 °F 97% 30.15 in 7.0 mi SSW 8.1 mph - 0.01 in Rain Light Rain
3:52 AM 44.1 °F 38.1 °F 42.1 °F 93% 30.13 in 8.0 mi South 11.5 mph - 0.00 in   Overcast
4:52 AM 45.0 °F 39.3 °F 42.1 °F 90% 30.12 in 10.0 mi SSW 11.5 mph - 0.00 in Rain Light Rain
5:52 AM 46.0 °F 39.9 °F 41.0 °F 83% 30.10 in 10.0 mi SSW 13.8 mph 19.6 mph 0.00 in Rain Light Rain
6:52 AM 46.0 °F 39.3 °F 39.9 °F 79% 30.09 in 10.0 mi South 16.1 mph 25.3 mph 0.00 in   Scattered Clouds
8:52 AM 48.0 °F - 39.9 °F 74% 30.09 in 10.0 mi SSW 16.1 mph 25.3 mph N/A   Overcast
9:14 AM 48.2 °F - 41.0 °F 76% 30.08 in 10.0 mi SSW 13.8 mph 20.7 mph N/A   Overcast
9:49 AM 48.2 °F - 42.8 °F 82% 30.08 in 2.5 mi SSW 12.7 mph 24.2 mph 0.02 in Rain Rain
9:52 AM 48.9 °F - 42.1 °F 77% 30.09 in 2.5 mi SSW 15.0 mph 24.2 mph 0.03 in Rain Rain
10:52 AM 48.9 °F - 45.0 °F 86% 30.10 in 7.0 mi SW 13.8 mph - 0.10 in Rain Light Rain
10:59 AM 48.2 °F - 44.6 °F 87% 30.10 in 2.5 mi SSW 13.8 mph 19.6 mph 0.00 in Rain Rain
11:32 AM 48.2 °F - 46.4 °F 93% 30.11 in 6.0 mi SSW 8.1 mph 18.4 mph 0.09 in Rain Light Rain
11:52 AM 48.9 °F - 46.0 °F 90% 30.11 in 6.0 mi SSW 11.5 mph - 0.09 in   Overcast
12:06 PM 48.2 °F - 46.4 °F 93% 30.10 in 6.0 mi SSW 12.7 mph - N/A   Overcast
12:52 PM 50.0 °F - 46.9 °F 89% 30.09 in 7.0 mi SSW 10.4 mph - N/A   Overcast
1:16 PM 50.0 °F - 46.4 °F 87% 30.07 in 6.0 mi SSW 11.5 mph 20.7 mph N/A   Overcast
1:52 PM 50.0 °F - 48.0 °F 93% 30.06 in 3.0 mi SSW 11.5 mph 24.2 mph 0.02 in Rain Light Rain
2:52 PM 51.1 °F - 48.9 °F 92% 30.05 in 4.0 mi SSW 11.5 mph 19.6 mph 0.03 in Rain Light Rain
3:52 PM 50.0 °F - 48.9 °F 96% 30.05 in 4.0 mi SSW 15.0 mph - 0.01 in   Overcast
4:06 PM 50.0 °F - 48.2 °F 94% 30.06 in 2.5 mi SSW 10.4 mph - N/A   Overcast
4:16 PM 50.0 °F - 50.0 °F 100% 30.05 in 2.5 mi SSW 10.4 mph 18.4 mph N/A   Overcast
4:28 PM 50.0 °F - 50.0 °F 100% 30.05 in 2.0 mi SSW 11.5 mph - N/A   Overcast
4:52 PM 50.0 °F - 50.0 °F 100% 30.05 in 2.0 mi SSW 10.4 mph 20.7 mph N/A   Overcast
5:16 PM 51.8 °F - 50.0 °F 94% 30.05 in 2.0 mi SSW 9.2 mph - N/A   Overcast
5:52 PM 51.1 °F - 50.0 °F 96% 30.06 in 3.0 mi SSW 10.4 mph - N/A   Overcast
6:52 PM 51.1 °F - 50.0 °F 96% 30.07 in 4.0 mi SSW 8.1 mph - 0.00 in   Overcast
7:52 PM 51.1 °F - 50.0 °F 96% 30.08 in 4.0 mi SSW 10.4 mph - N/A   Overcast
8:52 PM 52.0 °F - 51.1 °F 97% 30.07 in 4.0 mi SSW 10.4 mph - 0.00 in   Light Drizzle
9:31 PM 51.8 °F - 51.8 °F 100% 30.06 in 4.0 mi SSW 10.4 mph - 0.00 in   Overcast
9:52 PM 53.1 °F - 51.1 °F 93% 30.06 in 5.0 mi SSW 10.4 mph - 0.00 in   Overcast
10:52 PM 53.1 °F - 51.1 °F 93% 30.05 in 6.0 mi SSW 9.2 mph - N/A   Overcast
11:52 PM 54.0 °F - 51.1 °F 90% 30.05 in 7.0 mi SSW 11.5 mph - N/A   Overcast